Regional Weather Roundup
Issued by NWS

Home | Current Version | Previous Version | Text Only | Print | Product List | Glossary On
Versions: 1 2 3 4 5 6 7 8 9 10 11 12 13 14 15 16 17 18 19 20 21 22 23 24 25 26 27 28 29 30 31 32 33 34 35 36 37 38 39 40 41 42 43 44 45 46 47 48 49 50
000
ASUS45 KPSR 060810
RWRAZ

ARIZONA HOURLY REGIONAL WEATHER ROUNDUP
NATIONAL WEATHER SERVICE PHOENIX AZ
100 AM MST TUE DEC 06 2016

NOTE: FAIR INDICATES FEW OR NO CLOUDS BELOW 12,000 FEET WITH NO
SIGNIFICANT WEATHER AND/OR OBSTRUCTIONS TO VISIBILITY.

AZZ001>003-036-060900-
NORTHWEST ARIZONA

CITY           SKY/WX    TMP DP  RH WIND       PRES   REMARKS
KINGMAN        MOCLDY    38  14  37 SE6       29.90F WCI  33
$$

AZZ004>008-015-016-018-060900-
NORTH CENTRAL ARIZONA

CITY           SKY/WX    TMP DP  RH WIND       PRES   REMARKS
GRAND CANYON   MOCLDY    28  22  78 NE5       29.94F WCI  23
PRESCOTT       CLOUDY    36  22  56 S5        29.95F WCI  32
FLAGSTAFF      CLOUDY    31  19  61 W3        29.95F
PAYSON         CLOUDY    41  19  42 CALM      30.00S
PAGE           CLOUDY    41  10  28 CALM      29.85F
$$

AZZ009>014-017-060900-
NORTHEAST ARIZONA

CITY           SKY/WX    TMP DP  RH WIND       PRES   REMARKS
WINSLOW        CLOUDY    45  18  34 SW10      29.91F
SAINT JOHNS    CLOUDY    35  18  49 CALM      29.95R
WINDOW ROCK    CLOUDY    39  14  36 CALM      29.93F
SHOW LOW       CLOUDY    36  12  38 S15       29.98F WCI  26
$$

AZZ023-060900-
GREATER PHOENIX AREA

CITY           SKY/WX    TMP DP  RH WIND       PRES   REMARKS
PHOENIX        MOCLDY    50  29  44 E8        29.91S
BUCKEYE        PTCLDY    45  25  45 NE5       29.92S
LUKE AFB       MOCLDY    46  30  53 CALM      29.92R
DEER VALLEY    MOCLDY    48  24  39 E5        29.92S
SCOTTSDALE     MOCLDY    47  29  49 CALM      29.94R
MESA-GATEWAY   CLEAR     43  23  45 SE7       29.93S
$$

AZZ027-028-060900-
SOUTHWEST MARICOPA COUNTY AND PINAL COUNTY

CITY           SKY/WX    TMP DP  RH WIND       PRES   REMARKS
CASA GRANDE    NOT AVBL
GILA BEND      FAIR      49  21  33 SE9       29.90F
$$

AZZ503-504-507>509-060900-
SOUTHEAST ARIZONA

CITY           SKY/WX    TMP DP  RH WIND       PRES   REMARKS
TUCSON         PTCLDY    46  22  38 CALM      29.98F
DAVIS-MONTHAN  CLEAR     45  21  38 E5        29.97F
NOGALES        CLEAR     42  29  59 S3        30.00F
SIERRA VISTA   CLEAR     42  28  57 SW6       30.00F
DOUGLAS        CLEAR     41  32  70 SE7       30.01S
SAFFORD        CLEAR     37  17  44 E5        29.94F WCI  33
$$

AZZ020-021-025-026-031-060900-
SOUTHWEST ARIZONA

CITY           SKY/WX    TMP DP  RH WIND       PRES   REMARKS
YUMA           CLEAR     52  45  77 CALM      29.89R
$$

CAZ031-033-041-043-047-048-061-060900-
SOUTHERN CALIFORNIA

CITY           SKY/WX    TMP DP  RH WIND       PRES   REMARKS
DOWNTOWN L.A.  CLOUDY    57  52  83 E3        29.97S
L.A. AIRPORT   CLOUDY    58  53  84 NE5       29.98R
SAN DIEGO      MOCLDY    59  51  75 SE9       29.99F
BURBANK        CLOUDY    55  50  83 E3        29.97S
ONTARIO        CLOUDY    53  51  93 W7        29.98R
RIVERSIDE      CLOUDY    53  50  89 CALM      29.98R
PALM SPRINGS   CLEAR     50  31  48 NW7       29.89F
EL CENTRO NAS  CLEAR     46  31  55 SW3       29.88F
IMPERIAL       CLEAR     45  37  73 W5        29.86F
BLYTHE         CLEAR     45  19  35 E3        29.88F
NEEDLES        PTCLDY    51  16  24 NW7       29.88F
$$

NVZ020-UTZ003-060900-
SOUTHERN NEVADA-UTAH

CITY           SKY/WX    TMP DP  RH WIND       PRES   REMARKS
LAS VEGAS      MOCLDY    46  20  35 CALM      29.86F
SALT LAKE CITY MOCLDY    25  10  53 CALM      29.97F
$$

NMZ009-TXZ055-060900-
NEW MEXICO-WEST TEXAS

CITY           SKY/WX    TMP DP  RH WIND       PRES   REMARKS
ALBUQUERQUE    CLOUDY    35  16  45 SE6       29.91S WCI  30
EL PASO        PTCLDY    50  25  37 SW12      29.93S
$$


........................KEY........................
SKY/WX - SKY CONDITION/WEATHER
TMP    - TEMPERATURE IN FAHRENHEIT
DP     - DEW POINT IN FAHRENHEIT
RH     - RELATIVE HUMIDITY IN PERCENT
WIND   - DIRECTION AND SPEED IN MILES PER HOUR (MPH)
VRB    - VARIABLE WIND DIRECTION
PRES   - MEAN SEA LEVEL PRESSURE IN INCHES OF MERCURY
         F - FALLING PRESSURE   R - RISING PRESSURE
         S - STEADY PRESSURE
VSB    - VISIBILITY IN MILES
HX     - HEAT INDEX IN FAHRENHEIT
WCI    - WIND CHILL INDEX IN FAHRENHEIT
TC     - TEMPERATURE IN CELSIUS WHICH IS ALSO KNOWN AS
         TEMPERATURE IN CENTIGRADE
AFB    - AIR FORCE BASE
         LUKE AFB IS LUKE AIR FORCE BASE
         DAVIS-MONTHAN IS DAVIS-MONTHAN AIR FORCE BASE
NAS    - NAVAL AIR STATION
         EL CENTRO NAS IS EL CENTRO NAVAL AIR STATION
N/A    - NOT AVAILABLE




USA.gov is the U.S. government's official web portal to all federal, state and local government web resources and services.